Regional Weather Roundup
Issued by NWS

Home | Current Version | Previous Version | Text Only | Print | Product List | Glossary On
Versions: 1 2 3 4 5 6 7 8 9 10 11 12 13 14 15 16 17 18 19 20 21 22 23 24 25 26 27 28 29 30 31 32 33 34 35 36 37 38 39 40 41 42 43 44 45 46 47 48 49 50
000
ASUS45 KPSR 092310
RWRAZ

ARIZONA HOURLY REGIONAL WEATHER ROUNDUP
NATIONAL WEATHER SERVICE PHOENIX AZ
400 PM MST TUE FEB 09 2016

NOTE: FAIR INDICATES FEW OR NO CLOUDS BELOW 12,000 FEET WITH NO
SIGNIFICANT WEATHER AND/OR OBSTRUCTIONS TO VISIBILITY.

AZZ001>003-036-100000-
NORTHWEST ARIZONA

CITY           SKY/WX    TMP DP  RH WIND       PRES   REMARKS
BULLHEAD CITY  SUNNY     77  25  14 N25G32    30.15F
KINGMAN        SUNNY     70  21  15 N14       30.26F
$$

AZZ004>008-015-016-018-100000-
NORTH CENTRAL ARIZONA

CITY           SKY/WX    TMP DP  RH WIND       PRES   REMARKS
GRAND CANYON   SUNNY     57  10  15 NE13      30.42S
WILLIAMS       SUNNY     63  19  19 N7G13     30.43S
PRESCOTT       SUNNY     69  16  13 N9        30.31S
FLAGSTAFF      SUNNY     54  14  20 E9G17     30.40S
PAYSON         SUNNY     68  18  14 CALM      30.31S
PAGE           SUNNY     52  27  38 NE7       30.39F
$$

AZZ009>014-017-100000-
NORTHEAST ARIZONA

CITY           SKY/WX    TMP DP  RH WIND       PRES   REMARKS
WINSLOW        SUNNY     61  19  19 N8        30.36F
SAINT JOHNS    SUNNY     58  18  21 N6        30.34F
WINDOW ROCK    SUNNY     57   0  10 SW5       30.37S
SHOW LOW       SUNNY     54  16  22 N12       30.37F
$$

AZZ023-100000-
GREATER PHOENIX AREA

CITY           SKY/WX    TMP DP  RH WIND       PRES   REMARKS
PHOENIX        SUNNY     85  18   8 NE6       30.08F
BUCKEYE        SUNNY     82  18   9 E8        30.11F
GLENDALE       SUNNY     84  18   8 NE6       30.11F
LUKE AFB       SUNNY     85  18   8 E9        30.08F
DEER VALLEY    SUNNY     82  21  10 CALM      30.10F
SCOTTSDALE     SUNNY     82  14   8 VRB3      30.12F
MESA-FALCON    SUNNY    N/A N/A N/A VRB5      30.10F
MESA-GATEWAY   SUNNY     81  27  13 NW3       30.11F
CHANDLER       SUNNY     82  25  12 CALM      30.10F
$$

AZZ027-028-100000-
SOUTHWEST MARICOPA COUNTY AND PINAL COUNTY

CITY           SKY/WX    TMP DP  RH WIND       PRES   REMARKS
CASA GRANDE    SUNNY     82  27  13 NE8       30.11F
$$

AZZ503-504-507>509-100000-
SOUTHEAST ARIZONA

CITY           SKY/WX    TMP DP  RH WIND       PRES   REMARKS
TUCSON         SUNNY     82  13   7 VRB5      30.14F
DAVIS-MONTHAN  SUNNY     80  14   8 CALM      30.12F
RYAN FIELD     SUNNY     82  23  11 NE8       30.13F
NOGALES        SUNNY     79  12   8 NE12      30.16S
SIERRA VISTA   SUNNY     71   9   9 E9        30.25S
DOUGLAS        SUNNY     73  13  10 E12       30.22S
SAFFORD        SUNNY     72  20  14 S8        30.20F
$$

AZZ020-021-025-026-031-100000-
SOUTHWEST ARIZONA

CITY           SKY/WX    TMP DP  RH WIND       PRES   REMARKS
YUMA           SUNNY     84  24  11 N16       30.08F
$$

CAZ031-033-041-043-047-048-061-100000-
SOUTHERN CALIFORNIA

CITY           SKY/WX    TMP DP  RH WIND       PRES   REMARKS
DOWNTOWN L.A.  SUNNY     88  26  10 CALM      30.04F
L.A. AIRPORT   MOSUNNY   79  30  16 W12       30.06S
SAN DIEGO      SUNNY     81  31  16 NW8       30.05F
BURBANK        SUNNY     87  23   9 SW6       30.07S
ONTARIO        MOSUNNY   86  19   8 CALM      30.08F
RIVERSIDE      SUNNY     88  22   9 NE9       30.08F
PALM SPRINGS   SUNNY     87  22   9 VRB3      30.11F
EL CENTRO NAS  SUNNY     86  20   9 N7        30.11F
IMPERIAL       SUNNY     86  26  11 VRB3      30.08F
BLYTHE         SUNNY     83  25  12 NW12      30.12F
NEEDLES        SUNNY     80  23  12 N15       30.16F
$$

NVZ020-UTZ003-100000-
SOUTHERN NEVADA-UTAH

CITY           SKY/WX    TMP DP  RH WIND       PRES   REMARKS
LAS VEGAS      SUNNY     72  25  17 CALM      30.23F
SALT LAKE CITY SUNNY     39  29  67 W5        30.51F HAZE
$$

NMZ009-TXZ055-100000-
NEW MEXICO-WEST TEXAS

CITY           SKY/WX    TMP DP  RH WIND       PRES   REMARKS
ALBUQUERQUE    SUNNY     61  20  20 NE3       30.31F
EL PASO        SUNNY     66  16  14 CALM      30.27F
$$


........................KEY........................
SKY/WX - SKY CONDITION/WEATHER
TMP    - TEMPERATURE IN FAHRENHEIT
DP     - DEW POINT IN FAHRENHEIT
RH     - RELATIVE HUMIDITY IN PERCENT
WIND   - DIRECTION AND SPEED IN MILES PER HOUR (MPH)
VRB    - VARIABLE WIND DIRECTION
PRES   - MEAN SEA LEVEL PRESSURE IN INCHES OF MERCURY
         F - FALLING PRESSURE   R - RISING PRESSURE
         S - STEADY PRESSURE
VSB    - VISIBILITY IN MILES
HX     - HEAT INDEX IN FAHRENHEIT
WCI    - WIND CHILL INDEX IN FAHRENHEIT
TC     - TEMPERATURE IN CELSIUS WHICH IS ALSO KNOWN AS
         TEMPERATURE IN CENTIGRADE
AFB    - AIR FORCE BASE
         LUKE AFB IS LUKE AIR FORCE BASE
         DAVIS-MONTHAN IS DAVIS-MONTHAN AIR FORCE BASE
NAS    - NAVAL AIR STATION
         EL CENTRO NAS IS EL CENTRO NAVAL AIR STATION
N/A    - NOT AVAILABLE





USA.gov is the U.S. government's official web portal to all federal, state and local government web resources and services.